Home > Weather > Alexandroupoli > Past weeks

Flag for Greece Weather for the Past 2 Weeks in Alexandroupoli, Greece

Now
64 °F

Scattered clouds.


Feels Like: 64 °F
Forecast: 49 / 59 °F
Wind: 10 mph from Southwest

Location: Alexandroupoli Airport

Current Time: May 3, 2016 at 2:47:55 PM

Latest Report: May 3, 2016 at 1:50 PM


Visibility: N/A

Pressure: 29.65 "Hg

Humidity: 68%

Dew Point: 54 °F

Location of AlexandroupoliLocation

Historic Weather in Alexandroupoli — Graph

°F

Alexandroupoli Temperature Yesterday

Maximum temperature yesterday: 68 °F (at 3:50 PM)
Minimum temperature yesterday: 55 °F (at 4:20 AM)
Average temperature yesterday: 62 °F

High & Low Weather Summary for the Past Weeks

 TemperatureHumidityPressure
High79 °F (Apr 19, 1:50 PM)94% (Apr 19, 4:20 AM)30.30 "Hg (Apr 19, 4:20 AM)
Low43 °F (Apr 22, 5:50 AM)26% (Apr 21, 4:20 PM)29.39 "Hg (Apr 26, 6:20 AM)
Average62 °F64%29.89 "Hg
* Reported Apr 18 1:20 PM — May 3 1:20 PM, Alexandroupoli, Weather by CustomWeather, © 2016

Note: Actual official high and low records may vary slightly from our data, if they occured in-between our weather recording intervals... More about our weather records

Advertising

Alexandroupoli Weather History for the Previous 24 Hours

Scroll right to see more
 ConditionsComfort  
Time TempWeatherWind HumidityBarometerVisibility
1:20 PM
Tue, May 3
64 °FScattered clouds.7 mph73%29.65 "HgN/A
12:50 PM64 °FScattered clouds.9 mph73%29.65 "HgN/A
12:20 PM64 °FScattered clouds.8 mph68%29.65 "HgN/A
11:50 AM64 °FScattered clouds.3 mph68%29.65 "HgN/A
11:20 AM61 °FScattered clouds.8 mph88%29.65 "Hg6 mi
10:50 AM61 °FPartly sunny.7 mph88%29.65 "Hg6 mi
10:20 AM61 °FPartly sunny.7 mph88%29.65 "Hg5 mi
9:50 AM61 °FPartly sunny.8 mph88%29.65 "Hg5 mi
9:20 AM59 °FPartly sunny.9 mph88%29.65 "Hg5 mi
8:50 AM57 °FPartly sunny.8 mph94%29.65 "Hg5 mi
8:20 AM57 °FPartly sunny.9 mph88%29.65 "Hg5 mi
7:20 AM55 °FPartly sunny.8 mph94%29.65 "HgN/A
6:50 AM55 °FPartly cloudy.7 mph94%29.65 "HgN/A
5:50 AM54 °FPassing clouds.9 mph94%29.65 "HgN/A
5:20 AM52 °FMostly cloudy.9 mph94%29.65 "HgN/A
4:20 AM52 °FLight rain. Mostly cloudy.10 mph94%29.68 "Hg4 mi
11:50 PM
Mon, May 2
55 °FPassing clouds.12 mph94%29.74 "HgN/A
11:20 PM57 °FLight rain. Passing clouds.15 mph94%29.77 "Hg5 mi
10:50 PM59 °FLight rain. Passing clouds.15 mph88%29.77 "Hg5 mi
10:20 PM59 °FLight rain. Passing clouds.14 mph88%29.77 "Hg5 mi
9:50 PM59 °FLight rain. Passing clouds.14 mph82%29.74 "HgN/A
9:20 PM61 °FLight rain. Passing clouds.12 mph77%29.77 "HgN/A
8:50 PM61 °FLight rain. Scattered clouds.13 mph77%29.77 "HgN/A
8:20 PM63 °FScattered clouds.12 mph73%29.77 "HgN/A
7:50 PM63 °FScattered clouds.13 mph73%29.77 "HgN/A
6:50 PM66 °FScattered clouds.16 mph60%29.80 "HgN/A
6:20 PM68 °FBroken clouds.17 mph56%29.80 "HgN/A
5:50 PM68 °FScattered clouds.17 mph56%29.80 "HgN/A
5:20 PM66 °FScattered clouds.16 mph52%29.80 "HgN/A
4:50 PM68 °FPassing clouds.16 mph49%29.83 "HgN/A
4:20 PM68 °FPassing clouds.18 mph53%29.83 "HgN/A
3:50 PM68 °FPassing clouds.17 mph53%29.83 "HgN/A
3:20 PM66 °FPassing clouds.16 mph60%29.89 "HgN/A
2:50 PM66 °FPassing clouds.16 mph60%29.89 "HgN/A
2:20 PM64 °FPassing clouds.15 mph56%29.89 "HgN/A
Weather by CustomWeather, © 2016

See weather overviewHow to use our weather pages